Regional Weather Roundup
Issued by NWS

Home | Current Version | Previous Version | Graphics & Text | Print | Product List | Glossary On
Versions: 1 2 3 4 5 6 7 8 9 10 11 12 13 14 15 16 17 18 19 20 21 22 23 24 25 26 27 28 29 30 31 32 33 34 35 36 37 38 39 40 41 42 43 44 45 46 47 48 49 50
000
ASUS43 KIND 250609
RWRIN

WEATHER ROUNDUP FOR INDIANA
NATIONAL WEATHER SERVICE INDIANAPOLIS IN
100 AM EST SAT FEB 25 2017

NOTE: "FAIR" INDICATES FEW OR NO CLOUDS BELOW 12,000 FEET WITH NO
SIGNIFICANT WEATHER AND/OR OBSTRUCTIONS TO VISIBILITY.

* - STATION DOES NOT REPORT WEATHER SUCH AS PRECIPITATION OR FOG.

+ - STATION NOT QUALITY CONTROLLED BY THE NATIONAL WEATHER SERVICE.
    USE DATA WITH CAUTION...ESPECIALLY DEWPOINT AND RELATIVE
    HUMIDITY OBSERVATIONS.

INZ001>003-010>013-019-020-250700-
NORTHWEST INDIANA

CITY           SKY/WX    TMP DP  RH WIND       PRES   REMARKS
GARY /AIRPORT/ CLOUDY    37  32  82 W10G18    29.61R
KNOX *+        CLOUDY    39  23  52 W14       29.58F
LA PORTE +     CLOUDY    38  34  85 W10       29.58F
6HR MIN TEMP:  37; 6HR MAX TEMP:  39;

MICHIGAN CITY+ CLOUDY    36  36 100 NW3       29.59S
MONTICELLO +   CLOUDY    41  37  83 W16G25    29.61S
6HR MIN TEMP:  41; 6HR MAX TEMP:  51;

RENSSELAER +   DRIZZLE   37  36  93 W16G25    29.62S
VALPARAISO     CLOUDY    40  35  83 W13       29.59S
6HR MIN TEMP:  40; 6HR MAX TEMP:  43; 6HR PCP: TRACE;


$$

LMZ046-743>745-250700-
SOUTHERN LAKE MICHIGAN

STATION/POSITION TIME  TEMP    WIND        PRES    WAVE
                       AIR SEA DIR/SP/G            HT
                 (UTC) (F)     (DEG/KT/KT) (MB)    (FT)
BURNS HARBOR     0540   39     270/ 15/ 19 1002.7S
MICHIGAN CITY    0540   35     270/  6/  6   N/A

$$

INZ004-005-014>016-021>024-250700-
NORTH CENTRAL INDIANA

CITY           SKY/WX    TMP DP  RH WIND       PRES   REMARKS
GOSHEN         CLOUDY    40  34  79 W10       29.55F
6HR MIN TEMP:  39; 6HR MAX TEMP:  58; 6HR PCP:  0.08;

LOGANSPORT +   CLOUDY    41  36  81 W20G25    29.61S
PERU/GRISSOM   CLOUDY    43  37  81 W21       29.58S
6HR MIN TEMP:  42; 6HR MAX TEMP:  54; 6HR PCP:  0.01;

ROCHESTER +    MOCLDY    43  37  81 W9        29.60R
SOUTH BEND     CLOUDY    37  34  89 W9        29.57F
6HR MIN TEMP:  35; 6HR MAX TEMP:  45;

WARSAW +       CLOUDY    39  34  81 W8        29.57F

$$

INZ006>009-017-018-025>027-250700-
NORTHEAST INDIANA

CITY           SKY/WX    TMP DP  RH WIND       PRES   REMARKS
ANGOLA *+      MOCLDY    39  37  93 W5        29.54F
AUBURN +       PTCLDY    41  34  75 W7        29.58S
FORT WAYNE     MOCLDY    41  35  79 W9        29.58F
6HR MIN TEMP:  41; 6HR MAX TEMP:  62; 6HR PCP:  0.21;

HUNTINGTON +   CLOUDY    41  35  80 W8G17     29.59F
6HR MIN TEMP:  40; 6HR MAX TEMP:  62; 6HR PCP:  0.18;

KENDALLVILLE + PTCLDY    40  37  87 W10       29.55F

$$

INZ028-029-035-036-043>045-051>053-250700-
WEST CENTRAL INDIANA

CITY           SKY/WX    TMP DP  RH WIND       PRES   REMARKS
LAFAYETTE      MOCLDY    41  35  79 W17       29.63S
6HR MIN TEMP:  41; 6HR MAX TEMP:  52; 6HR PCP:  0.02;

TERRE HAUTE    MOCLDY    43  33  68 W14G21    29.69S
6HR MIN TEMP:  42; 6HR MAX TEMP:  52; 6HR PCP:  0.09;


$$

INZ030>032-037>040-046>048-054>057-064-065-250700-
CENTRAL INDIANA

CITY           SKY/WX    TMP DP  RH WIND       PRES   REMARKS
CP ATTERBURY + PTCLDY    45  32  61 W14G21    29.67S
FISHERS *+     CLEAR     41  36  81 W12       29.65R
FRANKFORT +    CLEAR     42  37  82 W17       29.64F
6HR MIN TEMP:  42; 6HR MAX TEMP:  56; 6HR PCP:  0.02;

GREENWOOD *+   CLEAR     44  34  68 W10G18    29.66R
6HR MIN TEMP:  44; 6HR MAX TEMP:  57;

INDIANAPOLIS   PTCLDY    41  33  73 W13       29.64S
6HR MIN TEMP:  41; 6HR MAX TEMP:  59; 6HR PCP:  0.08;

-EAGLE CREEK   CLEAR     42  33  70 W8G18     29.63F
6HR MIN TEMP:  42; 6HR MAX TEMP:  57; 6HR PCP:  0.26;

KOKOMO +       CLOUDY    43  38  82 W18       29.60F
6HR MIN TEMP:  43; 6HR MAX TEMP:  56; 6HR PCP:  0.11;

MARION +       CLOUDY    41  37  84 W9        29.61S
MT COMFORT *+  CLOUDY    41  32  70 W17G24    29.65R
SHELBYVILLE    CLOUDY    46  32  58 W21G29    29.64R
6HR MIN TEMP:  46; 6HR MAX TEMP:  65; 6HR PCP:  0.01;

ZIONSVILLE +   CLEAR     40  34  79 W17G24    29.63S
6HR MIN TEMP:  40; 6HR MAX TEMP:  54; 6HR PCP:  0.17;


$$

INZ033-034-041-042-049-050-058-059-250700-
EAST CENTRAL INDIANA

CITY           SKY/WX    TMP DP  RH WIND       PRES   REMARKS
MUNCIE         CLOUDY    45  38  76 W12       29.62R
6HR MIN TEMP:  45; 6HR MAX TEMP:  66; 6HR PCP:  0.18;


$$

INZ060-061-067>069-081>083-085>088-250700-
SOUTHWEST INDIANA

CITY           SKY/WX    TMP DP  RH WIND       PRES   REMARKS
EVANSVILLE     PTCLDY    45  32  60 W10G18    29.75S
6HR MIN TEMP:  45; 6HR MAX TEMP:  63; 6HR PCP:  0.15;

HUNTINGBURG *+ CLOUDY    45  32  61 W13       29.73R
6HR MIN TEMP:  45; 6HR MAX TEMP:  66; 6HR PCP: 20.01;

WASHINGTON +   CLEAR     43  31  62 W9        29.71F
6HR MIN TEMP:  43; 6HR MAX TEMP:  64; 6HR PCP:  0.02;


$$

INZ062-063-066-070>080-084-089>092-250700-
SOUTH CENTRAL AND SOUTHEAST INDIANA

CITY           SKY/WX    TMP DP  RH WIND       PRES   REMARKS
BEDFORD +      PTCLDY   N/A N/A N/A NW5       29.68S
BLOOMINGTON    CLEAR     43  33  68 W8        29.68R
6HR MIN TEMP:  43; 6HR MAX TEMP:  65; 6HR PCP:  0.03;

MADISON *+     CLOUDY    50  41  71 NW7       29.68R
NORTH VERNON + CLOUDY    50  43  76 W13       29.65R
SEYMOUR +      MOCLDY    48  39  71 W14       29.68R

$$




USA.gov is the U.S. government's official web portal to all federal, state and local government web resources and services.